GW4722 Weather Reports


time (UTC)temp
C
wind
direction
speed
KPH
gust
KPH
rain 1hr
cm
rain 24hr
cm
rain mn
cm
humidity
%
barometer
mb
20260504002203 -17 0.0 0.0 0.00 0.00 0.00 1015.5
20260504001700 -17 0.0 0.0 0.00 0.00 0.00 1015.4
20260504001156 -17 0.0 0.0 0.00 0.00 0.00 1015.4
20260504000653 -17 0.0 0.0 0.00 0.00 0.00 1015.4
20260504000151 -17 0.0 0.0 0.00 0.00 0.00 1015.2
20260503235649 -17 0.0 0.0 0.00 0.00 0.00 1015.2
20260503235145 -17 0.0 0.0 0.00 0.00 0.00 1015.1
20260503234643 15 260 0.0 0.0 0.00 0.00 0.00 35 1015.4
20260503234141 15 260 0.0 0.0 0.00 0.00 0.00 35 1015.3
20260503233638 15 276 0.0 1.6 0.00 0.00 0.00 36 1015.1
20260503233133 15 269 0.0 3.2 0.00 0.00 0.00 34 1015.1
20260503232630 16 285 4.8 9.7 0.00 0.00 0.00 33 1014.9
20260503232128 16 289 6.4 9.7 0.00 0.00 0.00 32 1015.2
20260503231626 16 280 0.0 3.2 0.00 0.00 0.00 32 1015.0
20260503231122 16 277 0.0 3.2 0.00 0.00 0.00 32 1014.9
20260503230619 16 174 3.2 6.4 0.00 0.00 0.00 29 1014.9
20260503230116 16 272 1.6 3.2 0.00 0.00 0.00 32 1015.0
20260503225614 16 245 1.6 3.2 0.00 0.00 0.00 33 1015.0
20260503225113 16 271 1.6 3.2 0.00 0.00 0.00 32 1014.9
20260503224611 17 231 1.6 6.4 0.00 0.00 0.00 31 1014.8
20260503224109 17 280 1.6 3.2 0.00 0.00 0.00 31 1014.9
20260503223607 16 320 3.2 4.8 0.00 0.00 0.00 32 1014.7
20260503223102 16 304 4.8 9.7 0.00 0.00 0.00 32 1015.0
20260503222600 16 329 6.4 6.4 0.00 0.00 0.00 32 1015.0
20260503222058 17 275 6.4 9.7 0.00 0.00 0.00 29 1015.1
20260503221555 16 278 6.4 11.3 0.00 0.00 0.00 30 1015.0
20260503221053 16 282 12.9 16.1 0.00 0.00 0.00 30 1015.1
20260503220549 17 280 4.8 6.4 0.00 0.00 0.00 31 1015.3
20260503220046 17 288 8.0 11.3 0.00 0.00 0.00 31 1015.3
20260503215543 17 280 9.7 11.3 0.00 0.00 0.00 29 1015.1
20260503215040 17 290 8.0 9.7 0.00 0.00 0.00 33 1015.1
20260503214538 17 252 3.2 11.3 0.00 0.00 0.00 31 1015.1
20260503214034 17 276 11.3 12.9 0.00 0.00 0.00 29 1015.1
20260503213533 16 296 6.4 11.3 0.00 0.00 0.00 32 1015.2
20260503213029 17 295 9.7 14.5 0.00 0.00 0.00 30 1015.2
20260503212527 17 281 11.3 14.5 0.00 0.00 0.00 28 1015.2
20260503212024 17 131 6.4 11.3 0.00 0.00 0.00 29 1015.0
20260503211521 17 296 6.4 6.4 0.00 0.00 0.00 31 1015.1
20260503211016 17 293 14.5 20.9 0.00 0.00 0.00 29 1015.3
20260503210514 17 234 3.2 14.5 0.00 0.00 0.00 30 1015.3
20260503210009 17 246 3.2 14.5 0.00 0.00 0.00 30 1015.1
20260503205506 17 224 8.0 12.9 0.00 0.00 0.00 30 1015.1
20260503205002 17 292 6.4 11.3 0.00 0.00 0.00 32 1015.3
20260503204459 16 333 0.0 6.4 0.00 0.00 0.00 31 1015.2
20260503203956 17 284 8.0 16.1 0.00 0.00 0.00 31 1015.3
20260503203454 17 269 1.6 4.8 0.00 0.00 0.00 30 1015.2
20260503202950 17 296 4.8 9.7 0.00 0.00 0.00 32 1015.2
20260503202448 17 304 8.0 14.5 0.00 0.00 0.00 34 1015.4
20260503201947 17 275 6.4 9.7 0.00 0.00 0.00 32 1015.4
20260503201444 17 270 0.0 9.7 0.00 0.00 0.00 32 1015.4
20260503200941 17 295 3.2 6.4 0.00 0.00 0.00 30 1015.6
20260503200437 16 286 1.6 9.7 0.00 0.00 0.00 32 1015.3
20260503195934 17 282 8.0 24.1 0.00 0.00 0.00 31 1015.3
20260503195432 17 239 1.6 9.7 0.00 0.00 0.00 30 1015.5
20260503194928 17 265 4.8 22.5 0.00 0.00 0.00 32 1015.9
20260503194425 17 245 4.8 11.3 0.00 0.00 0.00 30 1015.7
20260503193920 16 285 16.1 20.9 0.00 0.00 0.00 30 1015.9
20260503193416 16 291 4.8 9.7 0.00 0.00 0.00 33 1016.0
20260503192911 16 303 6.4 12.9 0.00 0.00 0.00 31 1016.1
20260503192408 16 323 9.7 14.5 0.00 0.00 0.00 33 1016.1
20260503191904 16 290 6.4 16.1 0.00 0.00 0.00 30 1016.1
20260503191401 16 301 9.7 17.7 0.00 0.00 0.00 31 1016.1
20260503190857 16 295 6.4 16.1 0.00 0.00 0.00 32 1016.3
20260503190355 16 274 1.6 6.4 0.00 0.00 0.00 31 1016.2
20260503185851 16 15 6.4 17.7 0.00 0.00 0.00 30 1016.3
20260503185348 17 46 3.2 4.8 0.00 0.00 0.00 30 1016.2
20260503184847 16 323 3.2 6.4 0.00 0.00 0.00 33 1016.3
20260503184344 16 300 3.2 14.5 0.00 0.00 0.00 31 1016.5
20260503183840 16 316 14.5 22.5 0.00 0.00 0.00 30 1016.7
20260503183337 16 288 6.4 11.3 0.00 0.00 0.00 34 1016.8
20260503182835 16 315 8.0 17.7 0.00 0.00 0.00 34 1016.8
20260503182334 16 312 1.6 4.8 0.00 0.00 0.00 36 1016.5
20260503181830 15 317 6.4 9.7 0.00 0.00 0.00 31 1016.5
20260503181327 15 229 1.6 9.7 0.00 0.00 0.00 33 1016.8
20260503180824 16 242 4.8 9.7 0.00 0.00 0.00 32 1016.6
20260503180322 15 327 3.2 9.7 0.00 0.00 0.00 32 1016.8
20260503175818 14 296 1.6 4.8 0.00 0.00 0.00 34 1016.9
20260503175316 15 333 4.8 14.5 0.00 0.00 0.00 30 1016.9
20260503174811 14 302 6.4 12.9 0.00 0.00 0.00 33 1017.1
20260503174310 14 291 3.2 11.3 0.00 0.00 0.00 32 1017.1
20260503173805 13 278 19.3 22.5 0.00 0.00 0.00 33 1017.4
20260503173301 13 279 9.7 11.3 0.00 0.00 0.00 34 1017.1
20260503172758 15 338 8.0 12.9 0.00 0.00 0.00 35 1017.3
20260503172256 13 269 3.2 6.4 0.00 0.00 0.00 41 1017.2
20260503171752 13 212 6.4 11.3 0.00 0.00 0.00 38 1017.4
20260503171249 13 204 1.6 9.7 0.00 0.00 0.00 36 1017.3
20260503170746 13 292 6.4 14.5 0.00 0.00 0.00 36 1017.6
20260503170243 14 282 11.3 20.9 0.00 0.00 0.00 33 1017.6
20260503160205 12 237 3.2 6.4 0.00 0.00 0.00 41 1018.1
20260503150635 11 304 12.9 16.1 0.00 0.00 0.00 42 1018.7
20260503150131 11 299 6.4 14.5 0.00 0.00 0.00 45 1018.8
20260503131025 8 351 3.2 12.9 0.00 0.00 0.00 58 1018.9
20260503130522 8 255 3.2 9.7 0.00 0.00 0.00 57 1019.0
20260503110401 0 147 0.0 0.0 0.00 0.00 0.00 94 1018.1
20260503090252 1 321 1.6 3.2 0.00 0.00 0.00 86 1017.2
20260503081219 4 315 0.0 1.6 0.00 0.00 0.00 76 1017.0
20260503080715 4 320 1.6 3.2 0.00 0.00 0.00 76 1017.1
20260503080212 4 310 1.6 1.6 0.00 0.00 0.00 80 1016.9
20260503072648 3 259 0.0 0.0 0.00 0.00 0.00 92 1016.5
20260503072145 3 265 0.0 0.0 0.00 0.00 0.00 91 1016.7
20260503071642 3 272 0.0 0.0 0.00 0.00 0.00 91 1016.6
20260503071139 3 292 0.0 0.0 0.00 0.00 0.00 91 1016.4
20260503070636 3 292 0.0 0.0 0.00 0.00 0.00 91 1016.5
20260503070134 3 292 0.0 0.0 0.00 0.00 0.00 91 1016.4
20260503055050 2 23 0.0 0.0 0.00 0.00 0.00 90 1016.2
20260503054545 2 344 0.0 0.0 0.00 0.00 0.00 89 1016.3
20260503054042 2 344 0.0 0.0 0.00 0.00 0.00 90 1016.4
20260503053541 2 344 0.0 0.0 0.00 0.00 0.00 90 1016.6
20260503053038 2 340 0.0 0.0 0.00 0.00 0.00 91 1016.4
20260503052535 2 340 0.0 0.0 0.00 0.00 0.00 91 1016.3
20260503052031 2 341 0.0 0.0 0.00 0.00 0.00 89 1016.4
20260503051527 2 341 0.0 0.0 0.00 0.00 0.00 88 1016.3
20260503051025 2 329 0.0 0.0 0.00 0.00 0.00 87 1016.3
20260503050520 2 327 0.0 1.6 0.00 0.00 0.00 86 1016.5
20260503050018 3 310 1.6 1.6 0.00 0.00 0.00 85 1016.6
20260503045515 3 315 1.6 1.6 0.00 0.00 0.00 86 1016.4
20260503045012 3 311 1.6 1.6 0.00 0.00 0.00 84 1016.6
20260503044508 3 312 1.6 1.6 0.00 0.00 0.00 83 1016.5
20260503044006 3 319 1.6 3.2 0.00 0.00 0.00 84 1016.5
20260503043502 3 304 1.6 3.2 0.00 0.00 0.00 85 1016.6
20260503042959 3 311 1.6 3.2 0.00 0.00 0.00 84 1016.5
20260503042455 3 331 1.6 3.2 0.00 0.00 0.00 83 1016.5
20260503041952 3 311 1.6 3.2 0.00 0.00 0.00 82 1016.5
20260503041448 3 316 0.0 0.0 0.00 0.00 0.00 81 1016.5
20260503040946 4 319 1.6 1.6 0.00 0.00 0.00 80 1016.5
20260503040443 5 328 0.0 1.6 0.00 0.00 0.00 77 1016.4
20260503035941 5 326 1.6 1.6 0.00 0.00 0.00 75 1016.5
20260503035437 5 317 1.6 1.6 0.00 0.00 0.00 73 1016.5
20260503034935 5 310 0.0 1.6 0.00 0.00 0.00 75 1016.5
20260503034432 5 326 1.6 1.6 0.00 0.00 0.00 73 1016.4
20260503033929 6 322 0.0 1.6 0.00 0.00 0.00 69 1016.3
20260503033426 6 300 4.8 6.4 0.00 0.00 0.00 66 1016.3
20260503032924 6 315 3.2 6.4 0.00 0.00 0.00 66 1016.4
20260503032423 6 316 1.6 4.8 0.00 0.00 0.00 70 1016.2
20260503031920 5 299 3.2 4.8 0.00 0.00 0.00 71 1016.2
20260503031418 5 307 1.6 3.2 0.00 0.00 0.00 71 1016.3
20260503030914 6 323 1.6 3.2 0.00 0.00 0.00 69 1016.6
20260503030411 7 304 1.6 3.2 0.00 0.00 0.00 65 1016.6
20260503025907 7 328 1.6 3.2 0.00 0.00 0.00 61 1016.7
20260503025405 7 7 1.6 1.6 0.00 0.00 0.00 63 1016.5
20260503024902 7 306 3.2 4.8 0.00 0.00 0.00 60 1016.5
20260503024359 7 324 0.0 3.2 0.00 0.00 0.00 59 1016.6
20260503023855 8 315 4.8 9.7 0.00 0.00 0.00 58 1016.5
20260503023352 7 335 3.2 4.8 0.00 0.00 0.00 60 1016.6
20260503022849 8 26 1.6 3.2 0.00 0.00 0.00 60 1016.6
20260503022343 8 11 1.6 4.8 0.00 0.00 0.00 59 1016.8
20260503021840 8 325 3.2 4.8 0.00 0.00 0.00 58 1016.8
20260503021337 8 336 4.8 11.3 0.00 0.00 0.00 56 1016.6
20260503020834 8 300 3.2 4.8 0.00 0.00 0.00 58 1016.7
20260503020332 8 309 3.2 3.2 0.00 0.00 0.00 59 1016.5
20260503015828 8 317 3.2 4.8 0.00 0.00 0.00 58 1016.5
20260503015325 8 318 3.2 3.2 0.00 0.00 0.00 59 1016.6
20260503014820 8 70 0.0 1.6 0.00 0.00 0.00 58 1016.4
20260503014318 8 321 1.6 3.2 0.00 0.00 0.00 58 1016.4
20260503013816 8 338 4.8 11.3 0.00 0.00 0.00 57 1016.2
20260503013313 8 23 3.2 4.8 0.00 0.00 0.00 57 1016.2
20260503012810 8 26 1.6 3.2 0.00 0.00 0.00 57 1016.1
20260503012307 8 326 3.2 6.4 0.00 0.00 0.00 57 1016.1
20260503011804 9 318 1.6 4.8 0.00 0.00 0.00 56 1016.0
20260503011301 9 346 4.8 6.4 0.00 0.00 0.00 56 1015.8
20260503010757 9 313 6.4 6.4 0.00 0.00 0.00 55 1015.8
20260503010254 9 37 3.2 3.2 0.00 0.00 0.00 55 1015.6
20260503005751 9 349 1.6 9.7 0.00 0.00 0.00 54 1015.8
20260503005249 10 33 3.2 6.4 0.00 0.00 0.00 55 1015.6
20260503004745 10 1 3.2 4.8 0.00 0.00 0.00 54 1015.4
20260503004243 10 31 3.2 4.8 0.00 0.00 0.00 54 1015.3
20260503003740 10 350 1.6 4.8 0.00 0.00 0.00 53 1015.3
20260503003237 10 17 3.2 4.8 0.00 0.00 0.00 52 1015.1
20260503002733 10 327 8.0 9.7 0.00 0.00 0.00 52 1015.2